EW6756 Weather Reports


time (UTC)temp
C
wind
direction
speed
KPH
gust
KPH
rain 1hr
cm
rain 24hr
cm
rain mn
cm
humidity
%
barometer
mb
20190820222456 13 225 0.0 4.8 0.00 0.00 0.00 84 1025.2
20190820221456 13 225 0.0 1.6 0.00 0.00 0.00 84 1025.2
20190820220458 13 225 0.0 0.0 0.00 0.00 0.00 84 1025.2
20190820215456 13 225 0.0 0.0 0.00 0.00 0.00 83 1025.2
20190820214457 13 270 0.0 0.0 0.00 0.00 0.00 83 1025.2
20190820213456 14 135 0.0 1.6 0.00 0.00 0.00 83 1025.3
20190820212456 14 292 0.0 0.0 0.00 0.00 0.00 82 1025.3
20190820211456 14 247 0.0 0.0 0.00 0.00 0.00 82 1025.1
20190820210456 14 225 0.0 0.0 0.00 0.00 0.00 82 1025.1
20190820205457 15 225 0.0 0.0 0.00 0.00 0.00 81 1025.0
20190820204456 15 157 0.0 0.0 0.00 0.00 0.00 81 1025.0
20190820203457 15 157 0.0 0.0 0.00 0.00 0.00 80 1024.9
20190820202458 15 157 0.0 0.0 0.00 0.00 0.00 80 1024.9
20190820201456 15 247 0.0 0.0 0.00 0.00 0.00 80 1024.9
20190820200456 15 225 0.0 0.0 0.00 0.00 0.00 80 1024.9
20190820195458 15 112 0.0 0.0 0.00 0.00 0.00 79 1025.2
20190820194456 16 180 0.0 0.0 0.00 0.00 0.00 79 1025.2
20190820193456 16 135 0.0 0.0 0.00 0.00 0.00 78 1024.7
20190820192456 16 135 0.0 0.0 0.00 0.00 0.00 77 1024.7
20190820191457 16 135 0.0 0.0 0.00 0.00 0.00 77 1024.6
20190820190456 16 202 0.0 0.0 0.00 0.00 0.00 77 1024.6
20190820185456 17 247 0.0 0.0 0.00 0.20 0.00 76 1024.4
20190820184458 17 360 0.0 0.0 0.00 0.20 0.00 76 1024.4
20190820183456 17 157 0.0 0.0 0.00 0.20 0.00 75 1024.4
20190820182456 17 247 0.0 0.0 0.00 0.20 0.00 75 1024.4
20190820181457 17 225 1.6 1.6 0.00 0.20 0.00 74 1024.2
20190820180457 18 270 0.0 0.0 0.00 0.20 0.00 74 1024.2
20190820175457 18 315 1.6 0.0 0.00 0.36 0.00 73 1024.1
20190820174456 18 247 1.6 3.2 0.00 0.36 0.00 72 1024.1
20190820173458 18 202 1.6 3.2 0.00 0.36 0.00 71 1024.0
20190820172456 18 270 1.6 3.2 0.00 0.36 0.00 70 1024.0
20190820171456 19 225 1.6 3.2 0.00 0.36 0.00 70 1023.9
20190820170456 19 315 1.6 3.2 0.00 0.36 0.00 69 1023.9
20190820165458 19 157 1.6 3.2 0.00 0.36 0.00 69 1023.8
20190820164458 19 292 1.6 0.0 0.00 0.36 0.00 69 1023.8
20190820163456 19 360 0.0 0.0 0.00 0.36 0.00 68 1023.8
20190820162457 20 225 1.6 0.0 0.00 0.36 0.00 67 1023.8
20190820161456 20 292 3.2 8.0 0.00 0.36 0.00 66 1023.7
20190820160456 20 45 1.6 3.2 0.00 0.36 0.00 65 1023.7
20190820155456 20 135 4.8 8.0 0.00 0.36 0.00 64 1023.1
20190820154456 21 270 4.8 6.4 0.00 0.36 0.00 63 1023.1
20190820153456 21 247 3.2 0.0 0.00 0.36 0.00 63 1023.2
20190820152456 21 270 4.8 4.8 0.00 0.36 0.00 63 1023.2
20190820151456 21 292 4.8 3.2 0.00 0.36 0.00 64 1022.8
20190820150456 21 202 3.2 4.8 0.00 0.36 0.00 63 1022.8
20190820145456 21 112 3.2 3.2 0.00 0.36 0.00 63 1023.2
20190820144457 21 270 1.6 4.8 0.00 0.36 0.00 65 1023.2
20190820143456 21 337 3.2 4.8 0.00 0.36 0.00 65 1022.8
20190820142456 22 202 3.2 3.2 0.00 0.36 0.00 65 1022.8
20190820141458 22 225 4.8 11.3 0.00 0.36 0.00 65 1023.0
20190820140456 22 247 4.8 8.0 0.00 0.36 0.00 64 1023.0
20190820135456 22 225 1.6 0.0 0.00 0.36 0.00 63 1023.1
20190820134456 22 360 1.6 1.6 0.00 0.36 0.00 66 1023.1
20190820133456 21 90 4.8 0.0 0.00 0.36 0.00 67 1022.7
20190820132457 21 22 3.2 4.8 0.00 0.36 0.00 66 1022.7
20190820131456 21 337 4.8 3.2 0.00 0.36 0.00 67 1022.6
20190820130456 21 157 3.2 9.7 0.00 0.36 0.00 68 1022.6
20190820125456 21 292 3.2 4.8 0.00 0.36 0.00 68 1022.5
20190820124456 22 247 3.2 8.0 0.00 0.36 0.00 68 1022.5
20190820123456 22 247 6.4 11.3 0.00 0.36 0.00 68 1022.2
20190820122456 21 292 8.0 12.9 0.00 0.36 0.00 67 1022.2
20190820121456 21 270 4.8 6.4 0.00 0.36 0.00 70 1022.1
20190820120456 21 315 6.4 6.4 0.00 0.36 0.00 69 1022.1
20190820115458 21 202 6.4 11.3 0.00 0.36 0.00 70 1022.1
20190820114456 21 247 6.4 9.7 0.00 0.36 0.00 70 1022.1
20190820113456 21 225 4.8 3.2 0.00 0.36 0.00 70 1021.9
20190820112456 22 270 6.4 6.4 0.00 0.36 0.00 72 1021.9
20190820111456 22 247 8.0 14.5 0.00 0.36 0.00 73 1021.6
20190820110456 21 247 9.7 16.1 0.00 0.36 0.00 73 1021.6
20190820105456 21 202 12.9 9.7 0.00 0.36 0.00 73 1021.6
20190820104457 21 247 11.3 19.3 0.00 0.36 0.00 74 1021.6
20190820103456 21 292 11.3 16.1 0.00 0.36 0.00 76 1021.8
20190820102456 20 225 11.3 20.9 0.00 0.36 0.00 77 1021.8
20190820101457 20 315 11.3 22.5 0.00 0.36 0.00 79 1021.6
20190820100456 20 270 9.7 16.1 0.00 0.36 0.00 81 1021.6
20190820095457 19 292 8.0 16.1 0.00 0.36 0.00 82 1021.4
20190820094456 19 292 8.0 19.3 0.00 0.36 0.00 82 1021.4
20190820093456 18 225 6.4 12.9 0.00 0.36 0.00 83 1020.9
20190820092457 18 247 9.7 19.3 0.00 0.36 0.00 82 1020.9
20190820091456 18 247 9.7 19.3 0.00 0.36 0.00 83 1021.2
20190820090458 18 270 6.4 11.3 0.00 0.36 0.00 84 1021.2
20190820085456 18 202 8.0 9.7 0.00 0.36 0.00 85 1021.0
20190820084456 18 225 8.0 9.7 0.00 0.36 0.00 86 1021.0
20190820083456 17 157 6.4 11.3 0.00 0.36 0.00 87 1020.8
20190820082456 17 202 8.0 11.3 0.00 0.36 0.00 87 1020.8
20190820081456 17 225 8.0 17.7 0.00 0.36 0.00 89 1020.4
20190820080456 16 247 8.0 17.7 0.00 0.36 0.00 90 1020.4
20190820075458 16 247 8.0 11.3 0.00 0.36 0.00 90 1020.8
20190820074456 16 202 6.4 14.5 0.00 0.36 0.00 91 1020.8
20190820073456 15 247 6.4 8.0 0.00 0.36 0.00 91 1020.6
20190820072456 15 135 6.4 6.4 0.00 0.36 0.00 92 1020.6
20190820071456 15 225 9.7 11.3 0.00 0.36 0.00 93 1020.4
20190820070456 14 225 8.0 17.7 0.00 0.36 0.00 93 1020.4
20190820065456 14 112 8.0 14.5 0.00 0.36 0.00 93 1019.8
20190820064457 13 247 4.8 4.8 0.00 0.36 0.00 93 1019.8
20190820063456 13 202 4.8 6.4 0.00 0.36 0.00 93 1019.6
20190820062456 13 270 6.4 0.0 0.00 0.36 0.00 93 1019.6
20190820061458 12 225 6.4 8.0 0.00 0.36 0.00 93 1019.4
20190820060456 12 202 4.8 8.0 0.00 0.36 0.00 93 1019.4
20190820055458 12 225 4.8 4.8 0.00 0.36 0.00 93 1018.9
20190820054456 12 180 6.4 8.0 0.00 0.36 0.00 93 1018.9
20190820053456 12 247 6.4 9.7 0.00 0.36 0.00 93 1018.7
20190820052456 12 202 6.4 8.0 0.00 0.36 0.00 93 1018.7
20190820051456 11 247 6.4 14.5 0.00 0.36 0.00 93 1019.2
20190820050456 11 202 6.4 11.3 0.00 0.36 0.00 93 1019.2
20190820045456 11 247 4.8 6.4 0.00 0.36 0.00 93 1019.2
20190820044456 11 135 3.2 6.4 0.00 0.36 0.00 93 1019.2
20190820043456 11 225 4.8 0.0 0.00 0.36 0.00 93 1019.0
20190820042456 11 180 4.8 8.0 0.00 0.36 0.00 93 1019.0
20190820041456 11 247 4.8 4.8 0.00 0.36 0.00 93 1019.0
20190820040458 11 225 4.8 12.9 0.00 0.36 0.00 93 1019.0
20190820035456 11 202 4.8 12.9 0.00 0.36 0.00 92 1019.0
20190820034456 11 247 3.2 0.0 0.00 0.36 0.00 92 1019.0
20190820033456 11 135 4.8 12.9 0.00 0.36 0.00 92 1018.9
20190820032456 11 202 4.8 3.2 0.00 0.36 0.00 92 1018.9
20190820031456 11 202 4.8 12.9 0.00 0.36 0.00 92 1018.8
20190820030456 11 202 1.6 4.8 0.00 0.36 0.00 92 1018.8
20190820025456 11 225 1.6 4.8 0.00 0.36 0.00 92 1019.1
20190820024458 11 202 1.6 0.0 0.00 0.36 0.00 92 1019.1
20190820023456 11 202 1.6 3.2 0.00 0.36 0.00 92 1018.9
20190820022456 11 247 1.6 1.6 0.00 0.36 0.00 92 1018.9
20190820021456 11 180 1.6 6.4 0.00 0.36 0.00 92 1019.1
20190820020456 11 202 1.6 0.0 0.00 0.36 0.00 92 1019.1
20190820015456 11 247 3.2 4.8 0.00 0.36 0.00 92 1019.0
20190820014456 11 225 1.6 4.8 0.00 0.36 0.00 91 1019.0
20190820013456 11 135 1.6 3.2 0.00 0.36 0.00 91 1018.9
20190820012457 12 180 3.2 3.2 0.00 0.36 0.00 91 1018.9
20190820011456 12 247 1.6 4.8 0.00 0.36 0.00 91 1018.6
20190820010457 12 135 1.6 4.8 0.00 0.36 0.00 91 1018.6
20190820005456 12 157 3.2 4.8 0.00 0.36 0.00 91 1018.8
20190820004456 12 247 3.2 4.8 0.00 0.36 0.00 91 1018.8
20190820003456 12 180 1.6 6.4 0.00 0.36 0.00 91 1018.8
20190820002456 12 180 1.6 4.8 0.00 0.36 0.00 92 1018.8
20190820001456 12 157 1.6 4.8 0.00 0.36 0.00 92 1018.5
20190820000456 12 157 1.6 9.7 0.00 0.36 0.00 92 1018.5
20190819235457 12 112 3.2 3.2 0.00 0.36 0.00 91 1018.6
20190819234456 12 202 4.8 3.2 0.00 0.36 0.00 91 1018.6
20190819233456 12 180 4.8 11.3 0.00 0.36 0.00 91 1018.8
20190819232456 12 135 3.2 6.4 0.00 0.36 0.00 91 1018.8
20190819231456 12 225 1.6 4.8 0.00 0.36 0.00 91 1018.9
20190819230456 12 135 1.6 4.8 0.00 0.36 0.00 91 1018.9
20190819225456 12 157 1.6 3.2 0.00 0.36 0.00 91 1019.6
20190819224457 12 157 3.2 11.3 0.00 0.36 0.00 91 1019.6
20190819223456 12 225 1.6 8.0 0.00 0.36 0.00 91 1018.7